GW6910 Weather Reports


time (UTC)temp
F
wind
direction
speed
knots
gust
knots
rain 1hr
in
rain 24hr
in
rain mn
in
humidity
%
barometer
mb
20260506214008 48 311 0.0 1.7 0.00 0.02 0.02 82 1011.4
20260506213510 48 5 0.0 1.7 0.00 0.02 0.02 82 1011.3
20260506213030 48 5 0.0 1.7 0.00 0.02 0.02 82 1011.2
20260506212508 49 5 0.0 1.7 0.00 0.02 0.02 81 1011.1
20260506212018 49 15 0.0 1.7 0.00 0.02 0.02 81 1011.1
20260506211529 49 25 0.9 1.7 0.00 0.02 0.02 82 1011.1
20260506211010 49 55 0.0 1.7 0.00 0.03 0.02 82 1011.1
20260506210511 49 19 0.0 1.7 0.00 0.03 0.02 81 1011.1
20260506210034 49 19 0.0 1.7 0.00 0.03 0.02 81 1011.2
20260506205508 49 19 0.0 1.7 0.00 0.04 0.02 81 1010.9
20260506205008 49 9 0.0 1.7 0.00 0.06 0.02 81 1011.0
20260506204519 49 11 0.0 2.6 0.00 0.07 0.02 80 1010.9
20260506204010 49 360 0.9 2.6 0.00 0.10 0.02 79 1010.9
20260506203511 49 82 0.9 1.7 0.00 0.11 0.02 79 1010.9
20260506203028 49 13 0.9 1.7 0.00 0.12 0.02 79 1010.9
20260506202510 49 74 0.0 3.5 0.00 0.14 0.02 79 1010.8
20260506202012 50 13 1.7 3.5 0.00 0.16 0.02 78 1010.8
20260506201533 50 56 0.9 4.3 0.00 0.18 0.02 78 1010.7
20260506201009 50 313 1.7 7.0 0.00 0.18 0.02 78 1010.7
20260506200509 50 11 2.6 7.0 0.00 0.19 0.02 78 1010.6
20260506200028 50 75 2.6 4.3 0.00 0.20 0.02 78 1010.6
20260506195511 50 61 1.7 4.3 0.00 0.20 0.02 78 1010.6
20260506195010 50 5 1.7 4.3 0.00 0.20 0.02 78 1010.6
20260506194528 50 346 0.9 4.3 0.00 0.20 0.02 78 1010.5
20260506194010 50 280 0.9 2.6 0.00 0.20 0.02 79 1010.4
20260506193507 50 20 0.9 1.7 0.00 0.20 0.02 79 1010.3
20260506193022 50 360 0.9 1.7 0.00 0.21 0.02 79 1010.2
20260506192508 50 348 0.9 1.7 0.00 0.21 0.02 78 1010.2
20260506192008 50 16 0.0 1.7 0.00 0.21 0.02 78 1010.1
20260506191527 50 13 0.0 1.7 0.00 0.22 0.02 78 1010.0
20260506191006 50 24 0.9 1.7 0.00 0.22 0.02 78 1010.0
20260506190504 51 28 0.9 2.6 0.00 0.22 0.02 77 1010.0
20260506190010 51 5 0.9 2.6 0.00 0.22 0.02 77 1009.9
20260506185503 51 351 0.0 1.7 0.00 0.22 0.02 77 1009.8
20260506185004 51 326 0.9 1.7 0.00 0.22 0.02 77 1010.0
20260506184507 51 5 0.9 3.5 0.00 0.22 0.02 76 1009.8
20260506184004 51 320 0.9 3.5 0.00 0.22 0.02 77 1009.7
20260506183508 51 317 0.9 4.3 0.00 0.22 0.02 77 1009.7
20260506183006 51 309 0.9 4.3 0.00 0.22 0.02 77 1009.6
20260506182504 51 22 0.9 2.6 0.00 0.23 0.02 77 1009.5
20260506182004 51 340 0.9 4.3 0.00 0.23 0.02 77 1009.5
20260506181503 51 26 2.6 4.3 0.00 0.23 0.02 76 1009.5
20260506181004 52 242 0.9 2.6 0.00 0.23 0.02 77 1009.3
20260506180503 52 85 0.9 2.6 0.00 0.23 0.02 77 1009.3
20260506180014 52 352 0.9 2.6 0.00 0.24 0.02 77 1009.3
20260506175503 52 319 0.9 4.3 0.00 0.24 0.02 77 1009.1
20260506175004 52 323 0.9 4.3 0.00 0.24 0.02 77 1009.1
20260506174508 52 346 1.7 4.3 0.00 0.24 0.02 76 1009.1
20260506174008 52 39 0.9 3.5 0.00 0.24 0.02 77 1009.1
20260506173504 52 14 1.7 5.2 0.00 0.24 0.02 77 1009.1
20260506173009 52 51 0.9 5.2 0.00 0.24 0.02 77 1009.2
20260506172504 52 45 1.7 5.2 0.00 0.24 0.02 76 1009.2
20260506172005 53 360 1.7 4.3 0.00 0.24 0.02 76 1009.1
20260506171518 53 332 1.7 4.3 0.00 0.24 0.02 75 1009.0
20260506171007 53 348 1.7 4.3 0.00 0.24 0.02 76 1009.0
20260506170506 53 61 0.9 2.6 0.00 0.24 0.02 78 1009.0
20260506170008 53 319 0.9 2.6 0.00 0.24 0.02 78 1009.0
20260506165503 53 336 0.9 2.6 0.00 0.24 0.02 78 1009.0
20260506165004 53 336 1.7 2.6 0.00 0.24 0.02 78 1009.0
20260506164511 53 293 0.9 4.3 0.00 0.24 0.02 78 1008.9
20260506164008 53 5 0.9 4.3 0.00 0.24 0.02 78 1008.9
20260506163505 53 288 1.7 5.2 0.00 0.25 0.02 77 1008.9
20260506163012 53 350 1.7 5.2 0.00 0.25 0.02 77 1008.8
20260506162503 53 328 2.6 5.2 0.00 0.25 0.02 77 1008.9
20260506162008 53 306 0.9 5.2 0.00 0.25 0.02 77 1008.8
20260506161512 53 341 1.7 5.2 0.00 0.25 0.02 77 1008.8
20260506161007 53 30 2.6 7.8 0.00 0.25 0.02 77 1008.9
20260506160508 53 107 0.9 7.8 0.00 0.25 0.02 77 1008.9
20260506160011 53 334 2.6 7.8 0.00 0.25 0.02 75 1008.9
20260506155506 54 71 2.6 7.8 0.00 0.26 0.02 75 1008.8
20260506155003 54 309 4.3 7.8 0.00 0.26 0.02 73 1008.8
20260506154508 54 11 1.7 7.8 0.00 0.26 0.02 74 1008.8
20260506154004 54 284 3.5 7.8 0.00 0.27 0.02 74 1008.7
20260506153509 54 350 3.5 7.0 0.00 0.27 0.02 75 1008.7
20260506153011 54 53 1.7 7.0 0.00 0.27 0.02 76 1008.6
20260506152508 53 9 1.7 7.8 0.00 0.28 0.02 76 1008.5
20260506152010 54 339 3.5 7.8 0.00 0.28 0.02 76 1008.6
20260506151515 54 57 4.3 7.8 0.00 0.28 0.02 74 1008.5
20260506151010 55 43 2.6 7.8 0.00 0.28 0.02 75 1008.5
20260506150506 54 352 2.6 7.0 0.00 0.28 0.02 75 1008.3
20260506150025 54 62 2.6 7.0 0.00 0.29 0.02 77 1008.4
20260506145507 54 10 2.6 7.0 0.00 0.29 0.02 77 1008.3
20260506145005 54 74 2.6 7.0 0.00 0.29 0.02 77 1008.4
20260506144515 53 360 2.6 7.0 0.00 0.29 0.02 77 1008.4
20260506144014 54 336 2.6 7.0 0.00 0.29 0.02 79 1008.4
20260506143505 53 49 1.7 7.0 0.00 0.29 0.02 80 1008.4
20260506143033 53 27 2.6 7.8 0.00 0.29 0.02 80 1008.5
20260506142509 53 305 2.6 7.8 0.00 0.29 0.02 79 1008.5
20260506142008 54 306 1.7 4.3 0.00 0.29 0.02 80 1008.5
20260506141514 54 352 1.7 4.3 0.00 0.29 0.02 80 1008.4
20260506141008 53 280 0.9 6.1 0.00 0.29 0.02 81 1008.4
20260506140505 53 328 1.7 6.1 0.00 0.30 0.02 80 1008.3
20260506140014 53 33 2.6 5.2 0.00 0.30 0.02 80 1008.4
20260506135506 53 19 1.7 5.2 0.00 0.30 0.02 80 1008.4
20260506135005 53 360 1.7 5.2 0.00 0.30 0.02 81 1008.4
20260506134514 53 321 0.9 3.5 0.00 0.30 0.02 82 1008.5
20260506134008 52 294 0.9 3.5 0.00 0.31 0.02 82 1008.5
20260506133510 52 244 1.7 3.5 0.00 0.31 0.02 82 1008.5
20260506133018 52 46 1.7 3.5 0.00 0.32 0.02 82 1008.5
20260506132509 53 310 0.9 6.1 0.00 0.32 0.02 82 1008.5
20260506132009 53 30 0.9 6.1 0.00 0.33 0.02 83 1008.4
20260506131516 53 263 0.9 6.1 0.00 0.33 0.02 82 1008.3
20260506131008 53 11 1.7 6.1 0.00 0.33 0.02 82 1008.3
20260506130510 53 327 0.9 5.2 0.00 0.33 0.02 83 1008.2
20260506130016 53 173 1.7 6.1 0.00 0.33 0.02 83 1008.1
20260506125507 53 26 2.6 6.1 0.00 0.33 0.02 81 1008.1
20260506125006 53 344 0.9 6.1 0.00 0.33 0.02 82 1008.0
20260506124516 53 19 2.6 6.1 0.00 0.33 0.02 82 1008.0
20260506124008 53 36 0.9 6.1 0.00 0.34 0.02 84 1008.0
20260506123508 53 242 1.7 4.3 0.00 0.34 0.02 82 1008.0
20260506123019 53 350 0.9 4.3 0.00 0.35 0.02 82 1007.9
20260506122507 53 57 1.7 4.3 0.00 0.36 0.02 81 1007.9
20260506122012 53 60 1.7 3.5 0.00 0.37 0.02 80 1007.9
20260506121515 53 9 1.7 3.5 0.00 0.37 0.02 81 1007.9
20260506121005 53 16 0.9 5.2 0.00 0.37 0.02 81 1007.7
20260506120512 53 289 1.7 7.0 0.00 0.37 0.02 82 1007.7
20260506120016 53 265 2.6 7.0 0.00 0.37 0.02 80 1007.7
20260506115508 54 22 1.7 7.0 0.00 0.37 0.02 80 1007.7
20260506115010 53 72 2.6 7.0 0.00 0.37 0.02 79 1007.7
20260506114521 54 352 2.6 5.2 0.00 0.37 0.02 80 1007.7
20260506114009 53 58 2.6 5.2 0.00 0.37 0.02 80 1007.6
20260506113509 53 30 2.6 6.1 0.00 0.37 0.02 79 1007.6
20260506113021 53 28 2.6 6.1 0.00 0.37 0.02 79 1007.5
20260506112507 54 349 3.5 6.1 0.00 0.37 0.02 79 1007.4
20260506112007 54 38 1.7 6.1 0.00 0.37 0.02 80 1007.5
20260506111519 54 13 1.7 6.1 0.00 0.37 0.02 80 1007.5
20260506111006 53 30 2.6 4.3 0.00 0.37 0.02 80 1007.5
20260506110515 54 5 1.7 4.3 0.00 0.37 0.02 80 1007.5
20260506110014 54 17 1.7 4.3 0.00 0.37 0.02 80 1007.5
20260506105508 54 33 2.6 4.3 0.00 0.37 0.02 80 1007.4
20260506105012 54 314 1.7 7.0 0.00 0.37 0.02 81 1007.4
20260506104519 54 327 1.7 7.0 0.00 0.37 0.02 81 1007.3
20260506104007 54 18 0.9 5.2 0.00 0.37 0.02 82 1007.3
20260506103508 53 38 2.6 5.2 0.00 0.37 0.02 82 1007.2
20260506103018 53 352 0.9 6.1 0.00 0.37 0.02 83 1007.2
20260506102510 53 352 2.6 6.1 0.00 0.37 0.02 82 1007.2
20260506102011 53 284 1.7 5.2 0.00 0.37 0.02 82 1007.2
20260506101537 53 9 0.9 5.2 0.00 0.37 0.02 83 1007.2
20260506101010 53 300 1.7 5.2 0.00 0.37 0.02 83 1007.2
20260506100510 53 53 1.7 3.5 0.00 0.37 0.02 82 1007.1
20260506100017 53 17 0.9 4.3 0.00 0.37 0.02 84 1007.1
20260506095512 53 335 1.7 4.3 0.00 0.37 0.02 84 1007.1
20260506095008 53 338 2.6 4.3 0.00 0.37 0.02 83 1007.1
20260506094518 53 9 2.6 4.3 0.00 0.37 0.02 83 1006.9
20260506094005 53 81 2.6 5.2 0.00 0.37 0.02 84 1006.9
20260506093514 53 344 2.6 5.2 0.00 0.37 0.02 84 1006.9
20260506093023 53 36 2.6 4.3 0.00 0.37 0.02 84 1006.9
20260506092508 53 39 1.7 4.3 0.00 0.37 0.02 85 1006.8
20260506092010 52 291 1.7 4.3 0.00 0.37 0.02 86 1006.8
20260506091522 52 17 0.9 6.1 0.00 0.37 0.02 87 1006.9
20260506091010 52 23 1.7 6.1 0.00 0.37 0.02 86 1006.9
20260506090512 52 94 1.7 4.3 0.00 0.37 0.02 86 1006.8
20260506090022 52 31 1.7 4.3 0.00 0.37 0.02 86 1006.8
20260506085509 52 352 0.9 3.5 0.00 0.37 0.02 87 1006.7
20260506085011 52 46 1.7 3.5 0.00 0.37 0.02 87 1006.6
20260506084522 52 282 1.7 3.5 0.00 0.37 0.02 87 1006.6
20260506084007 52 13 0.9 3.5 0.00 0.37 0.02 88 1006.5
20260506083506 52 300 1.7 4.3 0.00 0.37 0.02 87 1006.5
20260506083020 53 276 1.7 4.3 0.00 0.37 0.02 86 1006.4
20260506082507 53 63 0.9 2.6 0.00 0.37 0.02 87 1006.4
20260506082012 53 5 0.9 3.5 0.00 0.37 0.02 87 1006.4
20260506081522 52 299 0.9 4.3 0.00 0.37 0.02 88 1006.4
20260506081011 52 17 1.7 4.3 0.00 0.37 0.02 88 1006.3
20260506080507 52 32 0.9 3.5 0.00 0.37 0.02 88 1006.4
20260506073511 52 295 0.9 2.6 0.00 0.37 0.02 89 1006.4
20260506073024 52 338 0.9 3.5 0.00 0.37 0.02 89 1006.4
20260506072517 51 28 0.0 3.5 0.00 0.37 0.02 90 1006.4
20260506072008 51 325 0.9 1.7 0.00 0.37 0.02 90 1006.3
20260506071522 51 13 0.9 1.7 0.00 0.37 0.02 91 1006.2
20260506071011 51 254 0.0 2.6 0.00 0.37 0.02 91 1006.3
20260506070508 51 26 0.9 2.6 0.00 0.37 0.02 90 1006.2
20260506062514 51 329 0.9 2.6 0.00 0.37 0.02 90 1005.9
20260506062013 51 321 0.0 1.7 0.00 0.37 0.02 91 1005.8
20260506061525 51 23 0.9 1.7 0.00 0.37 0.02 90 1005.9
20260506061013 51 302 0.9 1.7 0.00 0.37 0.02 90 1005.9
20260506060508 51 25 0.9 2.6 0.00 0.37 0.02 89 1005.8
20260506051012 52 281 0.0 1.7 0.01 0.37 0.02 91 1005.5
20260506050517 52 286 0.0 1.7 0.01 0.37 0.02 91 1005.5
20260506045007 52 250 0.0 1.7 0.01 0.37 0.02 92 1005.5
20260506044526 52 250 0.0 1.7 0.01 0.37 0.02 92 1005.5
20260506044017 52 233 0.0 1.7 0.01 0.37 0.02 92 1005.5
20260506043511 52 245 0.0 1.7 0.01 0.37 0.02 92 1005.5
20260506043027 52 211 0.0 1.7 0.01 0.37 0.02 92 1005.5
20260506042511 52 244 0.9 3.5 0.01 0.37 0.02 91 1005.5
20260506042019 52 275 0.9 3.5 0.00 0.36 0.01 91 1005.5
20260506041530 52 276 0.9 2.6 0.00 0.35 0.00 91 1005.4
20260506041007 52 275 1.7 2.6 0.00 0.35 0.00 91 1005.4
20260506040510 52 195 0.0 1.7 0.00 0.35 0.00 91 1005.5
20260506040004 52 279 0.9 1.7 0.00 0.35 0.00 92 1005.5
20260506035504 52 263 0.9 2.6 0.00 0.35 0.00 92 1005.6
20260506035004 52 193 0.0 2.6 0.00 0.35 0.00 92 1005.6
20260506034507 53 220 0.0 1.7 0.00 0.35 0.00 92 1005.6
20260506034004 53 200 0.0 1.7 0.00 0.35 0.00 92 1005.7
20260506033504 53 191 0.0 1.7 0.00 0.35 0.00 92 1005.7
20260506033006 53 186 0.0 1.7 0.00 0.35 0.00 92 1005.6
20260506032504 53 199 0.0 1.7 0.00 0.35 0.00 92 1005.7
20260506032007 53 269 0.0 1.7 0.00 0.35 0.00 91 1005.7
20260506031519 53 196 0.0 3.5 0.00 0.35 0.00 91 1005.7
20260506031007 53 190 0.0 3.5 0.00 0.35 0.00 91 1005.7
20260506030508 53 171 0.9 3.5 0.00 0.35 0.00 91 1005.7
20260506030022 53 202 0.9 2.6 0.00 0.35 0.00 91 1005.8
20260506025513 53 183 0.9 2.6 0.00 0.35 0.00 91 1005.8
20260506025010 53 220 0.0 1.7 0.00 0.35 0.00 91 1005.8
20260506024506 53 220 0.9 2.6 0.00 0.35 0.00 91 1005.7
20260506024003 53 201 0.0 2.6 0.00 0.35 0.00 91 1005.7
20260506023505 53 191 0.0 1.7 0.00 0.35 0.00 91 1005.7
20260506023007 53 236 0.0 1.7 0.00 0.35 0.00 91 1005.7
20260506022502 53 211 0.0 2.6 0.00 0.35 0.00 91 1005.7
20260506022003 53 194 0.9 3.5 0.00 0.35 0.00 90 1005.7
20260506021511 53 198 0.9 3.5 0.00 0.35 0.00 90 1005.7
20260506021008 53 219 0.0 4.3 0.00 0.35 0.00 90 1005.7
20260506020512 53 216 0.9 4.3 0.00 0.35 0.00 90 1005.7
20260506020021 53 198 0.9 4.3 0.00 0.35 0.00 90 1005.8
20260506015508 53 171 0.9 5.2 0.00 0.35 0.00 90 1005.8
20260506015011 53 207 2.6 5.2 0.00 0.35 0.00 90 1005.8
20260506014522 53 175 1.7 5.2 0.00 0.35 0.00 90 1005.9
20260506014010 53 208 0.9 5.2 0.00 0.35 0.00 90 1005.9
20260506013504 54 163 1.7 5.2 0.00 0.35 0.00 90 1005.9
20260506013003 54 190 1.7 5.2 0.00 0.35 0.00 90 1005.9
20260506012508 54 202 0.9 5.2 0.00 0.35 0.00 90 1005.9
20260506012005 54 219 1.7 6.1 0.00 0.35 0.00 90 1005.9
20260506011506 54 208 2.6 6.1 0.00 0.35 0.00 90 1006.0
20260506011005 54 205 1.7 5.2 0.00 0.35 0.00 90 1006.0
20260506010505 54 185 2.6 5.2 0.00 0.35 0.00 90 1006.0
20260506010023 54 198 2.6 6.1 0.00 0.35 0.00 91 1006.0
20260506005507 54 200 2.6 6.1 0.00 0.35 0.00 91 1006.1
20260506005012 54 196 2.6 6.1 0.00 0.35 0.00 91 1006.1
20260506004524 54 244 1.7 6.1 0.00 0.35 0.00 91 1006.1
20260506004006 54 184 0.9 7.0 0.00 0.35 0.00 91 1006.1
20260506003511 54 198 2.6 7.0 0.00 0.35 0.00 92 1006.2
20260506003021 54 193 0.9 2.6 0.00 0.35 0.00 92 1006.3
20260506002506 54 207 0.0 2.6 0.00 0.35 0.00 93 1006.3
20260506002003 54 182 0.9 2.6 0.00 0.35 0.00 93 1006.3
20260506001504 54 200 0.9 2.6 0.00 0.35 0.00 93 1006.4
20260506001003 54 188 0.9 3.5 0.00 0.34 0.00 94 1006.4
20260506000508 54 190 0.9 3.5 0.00 0.34 0.00 94 1006.4
20260506000018 54 195 0.9 3.5 0.00 0.34 0.00 95 1006.5
20260505235511 54 167 0.9 2.6 0.00 0.34 0.00 95 1006.6
20260505235004 53 198 0.9 2.6 0.00 0.34 0.00 95 1006.6
20260505234519 53 202 0.0 1.7 0.00 0.34 0.00 95 1006.6
20260505234006 53 202 0.0 1.7 0.00 0.34 0.00 95 1006.7
20260505233513 53 176 0.0 1.7 0.00 0.34 0.00 95 1006.7
20260505233018 53 176 0.0 0.0 0.00 0.34 0.00 95 1006.7
20260505232507 53 176 0.0 0.0 0.00 0.34 0.00 95 1006.7
20260505232007 53 176 0.0 1.7 0.00 0.34 0.00 95 1006.7
20260505231522 53 176 0.0 1.7 0.00 0.34 0.00 95 1006.8
20260505231003 53 176 0.0 1.7 0.00 0.34 0.00 95 1006.8
20260505230503 53 176 0.0 1.7 0.00 0.34 0.00 95 1006.8
20260505230015 53 176 0.0 1.7 0.00 0.34 0.00 95 1006.8
20260505225506 53 176 0.0 0.0 0.00 0.34 0.00 95 1006.8
20260505225007 53 176 0.0 1.7 0.00 0.34 0.00 95 1006.9
20260505224519 53 176 0.0 1.7 0.00 0.34 0.00 95 1007.0
20260505224007 53 176 0.0 1.7 0.00 0.34 0.00 95 1007.0
20260505223512 54 90 0.0 1.7 0.00 0.34 0.00 95 1007.0
20260505223023 54 90 0.0 1.7 0.00 0.34 0.00 95 1007.0
20260505222507 54 90 0.0 1.7 0.00 0.34 0.00 95 1007.1
20260505222011 54 90 0.0 0.0 0.00 0.34 0.00 94 1007.1
20260505221524 54 90 0.0 0.0 0.00 0.34 0.00 94 1007.1
20260505221007 54 90 0.0 0.0 0.00 0.34 0.00 94 1007.2
20260505220509 54 90 0.0 0.0 0.00 0.35 0.00 94 1007.2
20260505220036 54 90 0.0 1.7 0.01 0.35 0.00 94 1007.3
20260505215507 54 90 0.0 1.7 0.02 0.35 0.35 94 1007.3
20260505215006 54 90 0.0 0.9 0.03 0.35 0.35 94 1007.3
20260505214514 54 90 0.0 0.9 0.05 0.35 0.35 94 1007.3